Date String (YYYY-MM-DD hh:mm:ss) UTC,Instrument flags,Ambient pressure (hPa),Sample flow (lpm),Bypass flow (lpm),Sample temperature (°C),Ambient temperature (°C),ASC tube jacket temperature (°C),LED temperature (°C),Box temperature (°C),Sample RH (%),Span deviation,Mass concentration (μg/m³),Mass concentration (μg/m³),Mass concentration (μg/m³)
DateTimeUTC,F1_M11,P_M11,Q1_M11,Q2_M11,T1_M11,T2_M11,T3_M11,T4_M11,T5_M11,U1_M11,ZSPAN_M11,X0_M11,X2_M11,X1_M11
2022-12-08 11:00:00,,0822.7,5.01,0.00,21.9,20.6,00.0,30.8,23.7,12.4,0000.0,0009.74,0004.19,0003.66
2022-12-08 11:01:00,,0822.7,5.01,0.00,22.0,21.6,00.0,30.8,23.9,12.4,0000.0,0008.59,0004.06,0003.57
2022-12-08 11:02:00,,0822.7,5.00,0.00,22.1,22.0,00.0,30.8,24.0,12.4,0000.0,0008.03,0003.93,0003.47
2022-12-08 11:03:00,,0822.6,4.99,0.00,22.1,21.7,00.0,30.9,24.0,12.4,0000.0,0007.95,0003.85,0003.41
2022-12-08 11:04:00,,0822.6,5.00,0.00,22.1,21.4,00.0,30.9,23.9,12.2,0000.0,0007.59,0003.79,0003.37
2022-12-08 11:05:00,,0822.5,5.01,0.00,22.1,21.2,00.0,30.9,23.9,12.2,0000.0,0007.44,0003.71,0003.34
2022-12-08 11:06:00,,0822.6,4.99,0.00,22.1,21.0,00.0,30.9,23.9,12.2,0000.0,0007.91,0003.71,0003.33
2022-12-08 11:07:00,,0822.6,5.01,0.00,22.0,20.9,00.0,30.9,23.8,12.2,0000.0,0008.05,0003.72,0003.34
2022-12-08 11:08:00,,0822.6,5.01,0.00,22.0,20.8,00.0,30.9,23.8,12.2,0000.0,0008.00,0003.74,0003.35
2022-12-08 11:09:00,,0822.6,4.99,0.00,22.0,20.7,00.0,30.9,23.8,12.2,0000.0,0007.91,0003.74,0003.36
2022-12-08 11:10:00,,0822.6,4.99,0.00,22.0,20.7,00.0,30.9,23.8,12.2,0000.0,0008.19,0003.82,0003.40
2022-12-08 11:11:00,,0822.6,5.00,0.00,22.0,20.6,00.0,30.9,23.8,12.2,0000.0,0008.49,0003.93,0003.50
2022-12-08 11:12:00,,0822.6,5.00,0.00,22.0,20.5,00.0,30.9,23.7,12.2,0000.0,0008.65,0004.03,0003.61
2022-12-08 11:13:00,,0822.6,5.00,0.00,22.0,20.5,00.0,30.9,23.7,12.2,0000.0,0008.83,0004.16,0003.71
2022-12-08 11:14:00,,0822.6,5.00,0.00,21.9,20.5,00.0,30.9,23.7,12.2,0000.0,0008.79,0004.26,0003.78
2022-12-08 11:15:00,,0822.5,5.00,0.00,21.9,20.5,00.0,30.9,23.6,12.2,0000.0,0009.09,0004.30,0003.83
2022-12-08 11:16:00,,0822.4,5.00,0.00,21.9,20.5,00.0,30.9,23.6,12.1,0000.0,0009.29,0004.31,0003.82
2022-12-08 11:17:00,,0822.5,5.00,0.00,21.9,20.4,00.0,30.9,23.6,12.1,0000.0,0009.11,0004.28,0003.79
2022-12-08 11:18:00,,0822.4,5.00,0.00,21.9,20.7,00.0,30.9,23.7,12.2,0000.0,0008.93,0004.24,0003.76
2022-12-08 11:19:00,,0822.4,5.01,0.00,22.0,21.6,00.0,30.8,23.9,12.2,0000.0,0009.49,0004.18,0003.71
2022-12-08 11:20:00,,0822.5,5.00,0.00,22.1,22.2,00.0,30.9,24.1,12.1,0000.0,0009.62,0004.10,0003.63
2022-12-08 11:21:00,,0822.4,4.99,0.00,22.1,21.9,00.0,30.9,24.1,12.1,0000.0,0009.32,0003.95,0003.52
2022-12-08 11:22:00,,0822.4,4.99,0.00,22.1,21.5,00.0,30.9,24.0,12.2,0000.0,0009.08,0003.79,0003.38
2022-12-08 11:23:00,,0822.4,5.00,0.00,22.1,21.3,00.0,31.0,24.0,12.1,0000.0,0008.87,0003.67,0003.27
2022-12-08 11:24:00,,0822.4,5.00,0.00,22.1,21.1,00.0,31.0,23.9,12.1,0000.0,0008.62,0003.51,0003.14
2022-12-08 11:25:00,,0822.3,5.00,0.00,22.1,21.0,00.0,31.0,23.9,12.1,0000.0,0008.33,0003.38,0002.98
2022-12-08 11:26:00,,0822.4,5.00,0.00,22.1,21.0,00.0,31.0,23.9,12.2,0000.0,0008.01,0003.35,0002.89
2022-12-08 11:27:00,,0822.3,5.00,0.00,22.1,20.9,00.0,31.0,23.9,12.1,0000.0,0008.02,0003.36,0002.89
2022-12-08 11:28:00,,0822.4,5.00,0.00,22.1,20.9,00.0,31.0,23.9,12.1,0000.0,0008.14,0003.36,0002.88
2022-12-08 11:29:00,,0822.4,4.99,0.00,22.1,20.8,00.0,31.0,23.9,12.1,0000.0,0008.13,0003.36,0002.86
2022-12-08 11:30:00,,0822.3,5.00,0.00,22.1,20.7,00.0,31.0,23.9,12.0,0000.0,0007.89,0003.35,0002.86
2022-12-08 11:31:00,,0822.4,5.00,0.00,22.1,20.7,00.0,31.0,23.8,12.0,0000.0,0007.92,0003.40,0002.94
2022-12-08 11:32:00,,0822.4,5.00,0.00,22.0,20.7,00.0,31.0,23.8,12.1,0000.0,0008.69,0003.49,0003.00
2022-12-08 11:33:00,,0822.4,5.00,0.00,22.0,20.6,00.0,31.0,23.8,12.0,0000.0,0008.81,0003.57,0003.11
2022-12-08 11:34:00,,0822.3,5.00,0.00,22.0,20.6,00.0,31.0,23.8,12.3,0000.0,0009.74,0003.59,0003.14
2022-12-08 11:35:00,,0822.4,5.00,0.00,22.0,20.6,00.0,31.0,23.8,12.9,0000.0,0010.74,0003.66,0003.18
2022-12-08 11:36:00,,0822.3,5.00,0.00,22.0,20.6,00.0,31.0,23.8,13.0,0000.0,0011.03,0003.72,0003.22
2022-12-08 11:37:00,,0822.4,5.00,0.00,22.0,20.6,00.0,30.9,23.8,12.9,0000.0,0011.44,0003.78,0003.26
2022-12-08 11:38:00,,0822.4,5.00,0.00,22.0,20.5,00.0,30.9,23.8,12.8,0000.0,0012.35,0003.88,0003.31
2022-12-08 11:39:00,,0822.4,5.01,0.00,22.0,21.0,00.0,30.9,23.9,12.6,0000.0,0012.22,0003.94,0003.36
2022-12-08 11:40:00,,0822.4,5.00,0.00,22.1,21.9,00.0,30.9,24.1,12.6,0000.0,0012.10,0003.94,0003.39
2022-12-08 11:41:00,,0822.4,4.99,0.00,22.2,22.3,00.0,30.9,24.2,12.5,0000.0,0012.24,0004.01,0003.40
2022-12-08 11:42:00,,0822.5,4.99,0.00,22.2,22.0,00.0,31.0,24.2,12.5,0000.0,0011.96,0003.99,0003.38
2022-12-08 11:43:00,,0822.4,4.98,0.00,22.3,21.8,00.0,31.0,24.2,12.5,0000.0,0011.46,0003.93,0003.36
2022-12-08 11:44:00,,0822.3,5.00,0.00,22.3,21.5,00.0,31.0,24.1,13.0,0000.0,0011.46,0003.80,0003.25
2022-12-08 11:45:00,,0822.4,5.01,0.00,22.2,21.3,00.0,31.0,24.0,13.2,0000.0,0010.89,0003.66,0003.10
2022-12-08 11:46:00,,0822.4,5.01,0.00,22.2,21.1,00.0,31.0,24.0,13.5,0000.0,0009.47,0003.47,0002.84
2022-12-08 11:47:00,,0822.4,5.00,0.00,22.2,20.9,00.0,31.0,23.9,13.2,0000.0,0009.45,0003.29,0002.56
2022-12-08 11:48:00,,0822.4,5.00,0.00,22.2,20.8,00.0,31.0,23.9,13.3,0000.0,0008.99,0003.03,0002.25
2022-12-08 11:49:00,,0822.3,4.99,0.00,22.1,20.6,00.0,31.0,23.8,13.4,0000.0,0007.61,0002.63,0001.94
2022-12-08 11:50:00,,0822.4,5.00,0.00,22.1,20.5,00.0,31.0,23.8,13.3,0000.0,0006.86,0002.19,0001.60
2022-12-08 11:51:00,,0822.4,4.99,0.00,22.0,20.4,00.0,31.0,23.8,13.3,0000.0,0007.28,0001.93,0001.32
2022-12-08 11:52:00,,0822.4,4.99,0.00,22.0,20.4,00.0,31.0,23.7,13.4,0000.0,0006.98,0001.62,0001.07
2022-12-08 11:53:00,,0822.5,5.00,0.00,22.0,20.4,00.0,31.0,23.7,13.1,0000.0,0007.24,0001.36,0000.87
2022-12-08 11:54:00,,0822.5,5.00,0.00,22.0,20.4,00.0,31.0,23.7,13.1,0000.0,0006.68,0001.14,0000.66
2022-12-08 11:55:00,,0822.4,5.01,0.00,22.0,20.4,00.0,31.0,23.7,13.2,0000.0,0005.57,0001.04,0000.59
2022-12-08 11:56:00,,0822.4,5.01,0.00,22.0,20.4,00.0,30.9,23.7,12.7,0000.0,0005.46,0000.99,0000.57
2022-12-08 11:57:00,,0822.4,5.00,0.00,22.0,20.8,00.0,30.9,23.7,12.7,0000.0,0005.56,0001.01,0000.56
2022-12-08 11:58:00,,0822.4,4.98,0.00,22.0,21.7,00.0,30.9,24.0,12.6,0000.0,0004.84,0001.00,0000.54
2022-12-08 11:59:00,,0822.4,5.01,0.00,22.1,22.2,00.0,30.9,24.1,12.5,0000.0,0005.08,0000.99,0000.53
